星链-36378(STARLINK-36378)

导读

STARLINK-36378(NORAD编号68025)是SpaceX星链(Starlink)低轨互联网星座中的一颗卫星,归入SpaceX 2026年轨道调整计划范畴。星链项目是全球低轨卫星通信标杆,旨在填补全球网络覆盖空白,该卫星运行于近地轨道,为偏远地区、航空航海等场景提供高速卫星互联网接入服务。为提升太空安全,降低碰撞风险和太空碎片产生概率,SpaceX计划2026年内将含STARLINK-36378在内的4400颗星链卫星轨道高度从550公里降至480公里,以便故障卫星能更快再入大气层销毁。

基本信息
目录编号:
68025
目录名称:
STARLINK-36378
国际标识:
2026-040L
轨道中心:
EARTH
卫星名称:
星链-36378
卫星全名:
星链-36378(STARLINK-36378)
卫星状态:
在轨 (已飞行104 天)
发射日期:
2026-03-01 UTC
国别 :
美国 (US)
星等 :
--
轨道信息
数据来源 国际轨道数据 AOE轨道数据
星历时间 2026-06-13T03:58:01+0800
8小时前
查看轨道信息
2026-06-10T06:00:00+0800
3天前
查看轨道信息
半长轴 6843.633km 6843.658km
偏心率 0.0001779 0.000228
轨道倾角 97.283° 97.281°
近地点辐角 93.196° 85.954°
升交点赤经 112.582° 109.709°
平近点角 266.949° 31.101°
近地点 464.278km 463.96km
远地点 466.714km 467.082km
周期 93.905分钟 93.906分钟
每日圈数 15.334609 15.334525
详细信息
固有亮度:
5
最大亮度:
2.5
卫星平台:
Starlink V1.0
覆盖范围:
全球
运营商:
太空探索技术公司
运营商所在国:
美国
制造商(研发单位):
太空探索技术公司
制造商所在国:
美国
使用方式:
暂无
卫星简介
Starlink 计划是 SpaceX 推出的全球卫星互联网项目,通过发射低轨道卫星,为全球尤其是偏远地区提供高速、低延迟的互联网服务。自 2019 年起,Starlink 已部署数千颗卫星,旨在缩小全球数字鸿沟,推动互联网普及。该项目还为军事、航空等行业提供通信支持,带来广泛经济效益。
2D轨道图
3D轨道图
轨道高度分析图
轨道倾角分析图
轨道综合分析图
查看轨道综合分析图